Maplewood, Minnesota, United States
Lat: 44.95N, Lon: 93W
Wx Zone: MNZ062
Local Info
Past Weather Observations for Sunday, August 17, 2014

NOTE: This archive is for the closest National Weather Service station to Maplewood. Information may differ from the station used for current weather conditions.

Click here for Long-term Archive

Time Weather Temperature Dewpoint Humidity Pressure Winds Precip Visibility
23:53
Overcast
Thunder Storms
68°F / 20°C 66°F / 19°C 94% 29.86 in
(1011 mb)
SE 5.8 mph
(SE 9 kph)
0.49 in
(12.45 mm)
10SM
23:43
Overcast
Thunder Storms
66°F / 19°C 66°F / 19°C 100% 29.86 in
(1011 mb)
ESE 5.8 mph
(ESE 9 kph)
0.41 in
(10.41 mm)
3SM
23:41
Overcast
Thunder Storms
66°F / 19°C 66°F / 19°C 100% 29.86 in
(1011 mb)
E 6.9 mph
(E 11 kph)
0.40 in
(10.16 mm)
1 3/4SM
23:39
Overcast
Thunder Storms
66°F / 19°C 66°F / 19°C 100% 29.86 in
(1011 mb)
E 9.2 mph
(E 15 kph)
0.38 in
(9.65 mm)
1 1/4SM
23:30
Overcast
Thunder Storms
66°F / 19°C 66°F / 19°C 100% 29.86 in
(1011 mb)
SE 8.1 mph
(SE 13 kph)
0.31 in
(7.87 mm)
3/4SM
23:27
Overcast
Thunder Storms
68°F / 20°C 66°F / 19°C 94% 29.86 in
(1011 mb)
S 8.1 mph
(S 13 kph)
0.28 in
(7.11 mm)
1SM
23:25
Overcast
Thunder Storms
68°F / 20°C 66°F / 19°C 94% 29.89 in
(1012 mb)
SSE 8.1 mph
(SSE 13 kph)
0.27 in
(6.86 mm)
2SM
23:20
Overcast
Thunder Storms
68°F / 20°C 68°F / 20°C 100% 29.89 in
(1012 mb)
SW 10.4 mph
(SW 17 kph)
0.23 in
(5.84 mm)
4SM
23:11
Overcast
Thunder Storms
68°F / 20°C 68°F / 20°C 100% 29.86 in
(1011 mb)
SE 8.1 mph
(SE 13 kph)
0.15 in
(3.81 mm)
2SM
23:04
Overcast
Thunder Storms
68°F / 20°C 68°F / 20°C 100% 29.86 in
(1011 mb)
SSE 6.9 mph
(SSE 11 kph)
0.09 in
(2.29 mm)
1 1/4SM
22:59
Overcast
Thunder Storms
68°F / 20°C 68°F / 20°C 100% 29.86 in
(1011 mb)
SSE 10.4 mph
(SSE 17 kph)
0.05 in
(1.27 mm)
2 1/2SM
22:55
Overcast
Thunder Storms
68°F / 20°C 68°F / 20°C 100% 29.86 in
(1011 mb)
SSE 11.5 mph
(SSE 19 kph)
0.02 in
(0.51 mm)
1 1/2SM
22:53
Overcast
Thunder Storms
68°F / 20°C 68°F / 20°C 100% 29.86 in
(1011 mb)
SSE 11.5 mph
(SSE 19 kph)
0.14 in
(3.56 mm)
1SM
22:47
Overcast
Thunder Storms
68°F / 20°C 66°F / 19°C 94% 29.86 in
(1011 mb)
SE 18.4 mph
(SE 30 kph)
0.09 in
(2.29 mm)
3/4SM
22:42
Overcast
Thunder Storms
68°F / 20°C 66°F / 19°C 94% 29.86 in
(1011 mb)
SE 12.7 mph
(SE 20 kph)
0.04 in
(1.02 mm)
1 1/4SM
22:40
Overcast
Heavy Rain
68°F / 20°C 66°F / 19°C 94% 29.86 in
(1011 mb)
SE 12.7 mph
(SE 20 kph)
0.03 in
(0.76 mm)
1 3/4SM
21:53
Mostly Cloudy
70°F / 21°C 64°F / 18°C 83% 29.86 in
(1011 mb)
ESE 5.8 mph
(ESE 9 kph)
- 10SM
20:53
Mostly Cloudy
70°F / 21°C 64°F / 18°C 83% 29.86 in
(1011 mb)
SE 9.2 mph
(SE 15 kph)
- 10SM
20:10
Partly Cloudy
70°F / 21°C 66°F / 19°C 88% 29.89 in
(1012 mb)
SE 9.2 mph
(SE 15 kph)
- 10SM
19:53
Mostly Cloudy
70°F / 21°C 68°F / 20°C 94% 29.89 in
(1012 mb)
SE 8.1 mph
(SE 13 kph)
- 10SM
19:24
Partly Cloudy
72°F / 22°C 70°F / 21°C 94% 29.89 in
(1012 mb)
SE 10.4 mph
(SE 17 kph)
- 10SM
18:53
Mostly Cloudy
72°F / 22°C 70°F / 21°C 94% 29.89 in
(1012 mb)
E 5.8 mph
(E 9 kph)
0.02 in
(0.51 mm)
10SM
18:43
Overcast
Light Rain
72°F / 22°C 70°F / 21°C 94% 29.89 in
(1012 mb)
SE 10.4 mph
(SE 17 kph)
0.02 in
(0.51 mm)
9SM
18:31
Overcast
Light Rain
72°F / 22°C 70°F / 21°C 94% 29.89 in
(1012 mb)
SE 12.7 mph
(SE 20 kph)
0.02 in
(0.51 mm)
7SM
17:53
Partly Cloudy
Light Rain
72°F / 22°C 68°F / 20°C 88% 29.89 in
(1012 mb)
SE 10.4 mph
(SE 17 kph)
0.00 in
(0.00 mm)
10SM
17:00
Clear
73°F / 23°C 70°F / 21°C 89% 29.89 in
(1012 mb)
SE 11.5 mph
(SE 19 kph)
- 10SM
16:53
Partly Cloudy
Thunder Storms
73°F / 23°C 70°F / 21°C 89% 29.89 in
(1012 mb)
SE 10.4 mph
(SE 17 kph)
- 10SM
16:45
Partly Cloudy
Thunder Storms
73°F / 23°C 70°F / 21°C 89% 29.89 in
(1012 mb)
SE 10.4 mph
(SE 17 kph)
- 10SM
15:53
Mostly Cloudy
73°F / 23°C 70°F / 21°C 89% 29.92 in
(1013 mb)
E 6.9 mph
(E 11 kph)
0.01 in
(0.25 mm)
10SM
15:09
Mostly Cloudy
75°F / 24°C 70°F / 21°C 83% 29.92 in
(1013 mb)
SE 9.2 mph
(SE 15 kph)
0.00 in
(0.00 mm)
10SM
14:53
Mostly Cloudy
Thunder Storms
75°F / 24°C 70°F / 21°C 83% 29.92 in
(1013 mb)
E 9.2 mph
(E 15 kph)
0.01 in
(0.25 mm)
10SM
13:53
Overcast
Light Rain
75°F / 24°C 70°F / 21°C 83% 29.95 in
(1014 mb)
E 6.9 mph
(E 11 kph)
0.00 in
(0.00 mm)
8SM
13:44
Overcast
Light Rain
77°F / 25°C 70°F / 21°C 79% 29.95 in
(1014 mb)
ESE 8.1 mph
(ESE 13 kph)
0.00 in
(0.00 mm)
10SM
13:07
Overcast
75°F / 24°C 70°F / 21°C 83% 29.95 in
(1014 mb)
E 10.4 mph
(E 17 kph)
- 9SM
12:53
Overcast
75°F / 24°C 70°F / 21°C 83% 29.95 in
(1014 mb)
E 8.1 mph
(E 13 kph)
- 8SM
12:31
Overcast
75°F / 24°C 70°F / 21°C 83% 29.95 in
(1014 mb)
SE 8.1 mph
(SE 13 kph)
- 8SM
11:53
Overcast
73°F / 23°C 68°F / 20°C 83% 29.95 in
(1014 mb)
ESE 9.2 mph
(ESE 15 kph)
- 8SM
11:49
Overcast
73°F / 23°C 68°F / 20°C 83% 29.95 in
(1014 mb)
ESE 10.4 mph
(ESE 17 kph)
- 8SM
10:53
Overcast
73°F / 23°C 68°F / 20°C 83% 29.98 in
(1015 mb)
SE 5.8 mph
(SE 9 kph)
- 7SM
09:53
Overcast
72°F / 22°C 66°F / 19°C 83% 29.98 in
(1015 mb)
SE 8.1 mph
(SE 13 kph)
- 7SM
08:53
Overcast
70°F / 21°C 66°F / 19°C 88% 29.98 in
(1015 mb)
ENE 4.6 mph
(ENE 7 kph)
- 7SM
07:53
Overcast
70°F / 21°C 64°F / 18°C 83% 29.98 in
(1015 mb)
E 5.8 mph
(E 9 kph)
- 8SM
06:53
Overcast
70°F / 21°C 64°F / 18°C 83% 29.98 in
(1015 mb)
E 5.8 mph
(E 9 kph)
- 10SM
05:53
Overcast
68°F / 20°C 64°F / 18°C 88% 29.95 in
(1014 mb)
E 5.8 mph
(E 9 kph)
- 10SM
05:38
Overcast
68°F / 20°C 64°F / 18°C 88% 29.98 in
(1015 mb)
E 5.8 mph
(E 9 kph)
- 10SM
04:53
Overcast
70°F / 21°C 64°F / 18°C 83% 29.95 in
(1014 mb)
E 3.5 mph
(E 6 kph)
- 10SM
03:53
Mostly Cloudy
70°F / 21°C 64°F / 18°C 83% 29.95 in
(1014 mb)
E 4.6 mph
(E 7 kph)
- 10SM
02:53
Clear
70°F / 21°C 66°F / 19°C 88% 29.95 in
(1014 mb)
ESE 5.8 mph
(ESE 9 kph)
- 10SM
01:53
Mostly Cloudy
72°F / 22°C 66°F / 19°C 83% 29.95 in
(1014 mb)
E 5.8 mph
(E 9 kph)
- 10SM
00:53
Partly Cloudy
72°F / 22°C 68°F / 20°C 88% 29.95 in
(1014 mb)
ESE 6.9 mph
(ESE 11 kph)
- 10SM
Time Weather Temperature Dewpoint Humidity Pressure Winds Precip Visibility


Weather for websites

WeatherForYou.com, LLC is not responsible for any damages or problems caused by this service. Current weather conditions are obtained from the closest station including government and personal stations which may have varying degrees of accuracy. Weather forecasts are derived from the NOAA NDFD. Like all things, this site belongs to Jesus Christ... He just trusts me to maintain it. If you have any questions or comments email webmaster@weatherforyou.com

Copyright © 2014, WeatherForYou.com LLC. All rights reserved.